Location: Treviso
(45.6669°N, 12.2430°E)
Time: 19:18:10
(UTC+01:00)

ISS - Pass Details

Date: 24 September 2018
Orbit: 402 x 409 km, 51.6° (Epoch: 13 November)

Event Time Altitude Azimuth Distance (km) Brightness Sun altitude
Rises 21:41:33 0° 265° (W) 2,342 0.8 -27.0°
Reaches altitude 10° 21:43:44 10° 273° (W) 1,481 -0.2 -27.4°
Enters shadow 21:45:03 20° 286° (WNW) 1,006 -1.2 -27.6°
